TimePDT,TemperatureF,Dew PointF,Humidity,Sea Level PressureIn,VisibilityMPH,Wind Direction,Wind SpeedMPH,Gust SpeedMPH,PrecipitationIn,Events,Conditions,WindDirDegrees,DateUTC
12:51 AM,75.0,21.0,13,29.88,10.0,ESE,4.6,-,N/A,,Clear,120,2012-10-28 07:51:00
1:51 AM,73.9,19.9,13,29.88,10.0,Calm,Calm,-,N/A,,Clear,0,2012-10-28 08:51:00
2:51 AM,73.9,19.0,13,29.87,10.0,Calm,Calm,-,N/A,,Clear,0,2012-10-28 09:51:00
3:51 AM,73.9,18.0,12,29.86,10.0,Calm,Calm,-,N/A,,Clear,0,2012-10-28 10:51:00
4:51 AM,73.9,19.0,13,29.86,10.0,Calm,Calm,-,N/A,,Clear,0,2012-10-28 11:51:00
5:51 AM,75.0,18.0,12,29.87,10.0,Calm,Calm,-,N/A,,Clear,0,2012-10-28 12:51:00
6:51 AM,71.1,25.0,18,29.88,10.0,Calm,Calm,-,N/A,,Clear,0,2012-10-28 13:51:00
7:51 AM,73.0,21.9,15,29.89,10.0,Calm,Calm,-,N/A,,Clear,0,2012-10-28 14:51:00
9:51 AM,77.0,30.9,19,29.92,10.0,Calm,Calm,-,N/A,,Clear,0,2012-10-28 16:51:00
10:51 AM,80.1,30.9,17,29.92,10.0,Calm,Calm,-,N/A,,Clear,0,2012-10-28 17:51:00
11:51 AM,78.1,39.0,25,29.93,10.0,West,4.6,-,N/A,,Clear,270,2012-10-28 18:51:00
12:51 PM,78.1,39.0,25,29.91,10.0,Variable,5.8,-,N/A,,Clear,0,2012-10-28 19:51:00
1:51 PM,79.0,34.0,20,29.90,10.0,WSW,6.9,-,N/A,,Clear,250,2012-10-28 20:51:00
2:51 PM,78.1,28.0,16,29.89,10.0,WSW,10.4,-,N/A,,Clear,250,2012-10-28 21:51:00
3:51 PM,77.0,23.0,13,29.89,10.0,WSW,8.1,-,N/A,,Clear,240,2012-10-28 22:51:00
4:51 PM,75.9,21.9,13,29.90,10.0,SW,5.8,-,N/A,,Clear,230,2012-10-28 23:51:00
5:51 PM,73.0,25.0,17,29.91,10.0,SW,4.6,-,N/A,,Clear,230,2012-10-29 00:51:00
6:51 PM,73.0,10.0,9,29.94,10.0,WSW,8.1,-,N/A,,Clear,250,2012-10-29 01:51:00
7:51 PM,73.0,10.0,9,29.94,10.0,WSW,6.9,-,N/A,,Clear,250,2012-10-29 02:51:00
8:51 PM,71.1,17.1,13,29.96,10.0,WSW,4.6,-,N/A,,Clear,250,2012-10-29 03:51:00
10:51 PM,71.1,21.0,15,29.98,10.0,Calm,Calm,-,N/A,,Clear,0,2012-10-29 05:51:00
11:51 PM,71.1,19.9,14,29.99,10.0,Calm,Calm,-,N/A,,Clear,0,2012-10-29 06:51:00